“In life, you're either a passenger or a pilot. It’s your choice.”

WELCOME TO YOUR AVIATION DREAM!

What's new Up There Icon

WHAT’S NEW HERE?

4000+ aviation terms, acronyms and definitions!
Make your study a little easier with the aviation glossaries that gather over 4000 terms and acronyms extracted from weather, communications, technical and more general topics…
Partnership Icon

PARTNESHIP ANNOUNCEMENT

I am proud to announce a partnership with nizul Logo, study partner of every pilot who wants to consolidate their ground school knowledge and master their written examination.

Try Me Icon

ALL YOURS FOR 30 MINUTES!

Not sure you’d get along with a freelance instructor? How about giving it a try with a 30 minute flight?
My treat! All free.

Resources Tool Box

STUDENT RESOURCES

As a registered student training with me, you get access to a whole lot of files, tools, documents, aviation glossaries, videos, quizzes, sample tests, etc… 

Control Tower Icon

QUESTIONS? CHECK F.A.Q.

In aviation, the only stupid question is the one you didn’t ask. And there is a big chance yours has already been answered in the FAQ. Check it out!

Brain Icon

ARE YOU WIRED FOR FLYING?

Flying an aircraft is usually not the most difficult part of the “problem” and it takes a certain mindset to deal with the other aspects of a flight. Find out wether…

THEY DID IT!

Meet those who refused to be the passengers of their lives, and learn about their experience.

QUICK FACTS

Aviation is a world of serious numbers.
Here are my own, and they count as much as the other ones.

0
YEARS OF
WISDOM
0
YEARS OF
SKY FUN
0
AMAZING
STUDENTS
0
HOURS OF
PURE EXCITEMENT

Grow some wings,
Come fly with me!

Vancouver Island Weather

METARs and TAFs.
VICTORIA INTL (CYYJ)
METAR:

CYYJ 022200Z 11005KT 20SM BKN050 OVC130 08/M01 A3001 RMK SC6AC2 SLP163

TAF:

TAF CYYJ 021738Z 0218/0318 28006KT P6SM FEW040 BKN150 BECMG 0220/0222 13005KT FM022200 13005KT P6SM SCT030 BKN100 FM030500 VRB03KT P6SM SCT030 BKN080 TEMPO 0305/0318 BKN030 RMK NXT FCST BY 030000Z

NANAIMO (CYCD)
METAR:

CYCD 022200Z 10005KT 20SM SCT050 OVC100 07/M02 A3001 RMK SC3AC5 SLP163

TAF:

TAF CYCD 021738Z 0218/0305 VRB03KT P6SM BKN120 FM022000 15005KT P6SM SCT040 BKN100 TEMPO 0220/0305 P6SM -SHRA BKN040 RMK NXT FCST BY 030000Z

LONG BEACH (CYAZ)
METAR:

CYAZ 022200Z 14007KT 15SM -SHRA SCT023 BKN061 OVC068 06/03 A3001 RMK CU4SC2AC2 SLP165

TAF:

TAF CYAZ 021838Z 0219/0301 VRB03KT P6SM SCT020 BKN050 TEMPO 0219/0301 5SM -RA BR BKN020 OVC040 BECMG 0219/0221 16008KT RMK NXT FCST WILL BE ISSUED AT 031645Z

For more in-depth weather information, please, check Collaborative Flight Planning Service

For all Runway conditions in CYYJ, please check

IIDS Web View

Windy’s Forecast & Observations